Location: D�rnast
(49.6426°N, 11.9755°E)
Time: 12:18:29
(UTC+00:00)

CZ-2C R/B - Pass Details

Date: 24 January 2021
Orbit: 785 x 870 km, 98.2° (Epoch: 27 February)

Event Time Altitude Azimuth Distance (km) Brightness Sun altitude
Exits shadow 19:52:00 32° 288° (WNW) 1,458 4.3 -38.0°
Drops below altitude 10° 19:56:26 10° 237° (WSW) 2,511 5.5 -38.7°
Sets 19:59:02 0° 227° (SW) 3,448 6.2 -39.1°
